Regional Weather Roundup
Issued by NWS

Home | Current Version | Previous Version | Graphics & Text | Print | Product List | Glossary On
Versions: 1 2 3 4 5 6 7 8 9 10 11 12 13 14 15 16 17 18 19 20 21 22 23 24 25 26 27 28 29 30 31 32 33 34 35 36 37 38 39 40 41 42 43 44 45 46 47 48 49 50
000
ASUS43 KDTX 240601
RWRMI
MICHIGAN HOURLY REGIONAL WEATHER ROUNDUP
NATIONAL WEATHER SERVICE DETROIT/PONTIAC MI
200 AM EDT FRI OCT 24 2014

NOTE: "FAIR" INDICATES FEW OR NO CLOUDS BELOW 12,000 FEET WITH NO
SIGNIFICANT WEATHER AND/OR OBSTRUCTION TO VISIBILITY.

MIZ047>049-052>055-059>063-066>070-074>076-081>083-240700-
SOUTHEAST LOWER MICHIGAN

CITY           SKY/WX    TMP DP  RH WIND       PRES   REMARKS
ADRIAN         PTCLDY    37  35  92 CALM      30.10F
6HR MIN TEMP:  37; 6HR MAX TEMP:  49;

ALMA           MOCLDY    37  35  94 CALM      30.07F
ANN ARBOR      PTCLDY    32  30  92 W3        30.08F FOG
BAD AXE        FOG       29  29 100 CALM      30.08F VSB 1/4
6HR MIN TEMP:  28; 6HR MAX TEMP:  36;

CARO           PTCLDY    31  30  98 CALM      30.08S FOG
DETROIT CITY   CLEAR     42  38  85 CALM      30.10S
6HR MIN TEMP:  42; 6HR MAX TEMP:  51;

DETROIT        CLOUDY    41  36  82 CALM      30.10S
6HR MIN TEMP:  40; 6HR MAX TEMP:  50;

FLINT          MOCLDY    35  32  88 CALM      30.08F
6HR MIN TEMP:  35; 6HR MAX TEMP:  47;

GROSSE ILE     PTCLDY    41  37  87 CALM      30.08S
HILLSDALE      CLEAR     36  35  99 CALM      30.08F
HOWELL         CLEAR     35  34  94 CALM      30.08S

CITY           SKY/WX    TMP DP  RH WIND       PRES   REMARKS
JACKSON        CLEAR     35  32  88 CALM      30.08F
6HR MIN TEMP:  35; 6HR MAX TEMP:  45;

LAMBERTVILLE   PTCLDY    36  34  93 CALM      30.10S FOG
LANSING        CLOUDY    40  36  86 CALM      30.09S
6HR MIN TEMP:  37; 6HR MAX TEMP:  46;

LAPEER         FAIR      31  31  99 CALM      30.09S FOG
MASON          CLEAR     36  35  94 CALM      30.08S
MONROE         PTCLDY    36  36 100 CALM      30.08F FOG
MT. CLEMENS    PTCLDY    38  38  99 NW2       30.07F
6HR MIN TEMP:  37; 6HR MAX TEMP:  48;

PONTIAC        PTCLDY    35  32  88 CALM      30.08S FOG
6HR MIN TEMP:  35; 6HR MAX TEMP:  46;

PORT HOPE        N/A     39  37  92 SW6       30.06F WCI  35
6HR MIN TEMP:  36; 6HR MAX TEMP:  41;

PORT HURON     FOG       30  30 100 CALM      30.10S VSB 1/2
TRI CITIES     MOCLDY    42  36  79 S3        30.08F
6HR MIN TEMP:  38; 6HR MAX TEMP:  46;

TROY           PTCLDY    41  37  83 CALM      30.10S
SAGINAW HB     MOCLDY    36  36 100 CALM      30.07F
$$
MIZ043>046-050>051-056>058-064>065-071>073-077>080-240700-
SOUTHWEST LOWER MICHIGAN

CITY           SKY/WX    TMP DP  RH WIND       PRES   REMARKS
BATTLE CREEK   CLOUDY    43  38  82 CALM      30.08F
6HR MIN TEMP:  40; 6HR MAX TEMP:  50;

BENTON HARBOR  CLOUDY    50  42  74 S3        30.08S
6HR MIN TEMP:  44; 6HR MAX TEMP:  51;

BIG RAPIDS     PTCLDY    43  43 100 CALM      30.05S FOG
6HR MIN TEMP:  42; 6HR MAX TEMP:  48;

COLDWATER      PTCLDY    37  36  96 CALM      30.08F FOG
6HR MIN TEMP:  36; 6HR MAX TEMP:  45;

FREMONT        CLOUDY    47  44  87 S3        30.05S
HOLLAND        CLOUDY    51  43  74 S5        30.07F
6HR MIN TEMP:  48; 6HR MAX TEMP:  51;

GRAND RAPIDS   CLOUDY    47  41  80 S3        30.07F
6HR MIN TEMP:  44; 6HR MAX TEMP:  50;

IONIA          FAIR      42  38  84 CALM      30.06F
KALAMAZOO      CLOUDY    47  41  80 S5        30.08S
6HR MIN TEMP:  43; 6HR MAX TEMP:  50;

LUDINGTON      CLOUDY    52  48  87 S6        30.04S
6HR MIN TEMP:  49; 6HR MAX TEMP:  52;

MARSHALL       PTCLDY    33  32  94 CALM      30.08S
MOUNT PLEASANT CLOUDY    42  40  92 CALM      30.06S
6HR MIN TEMP:  37; 6HR MAX TEMP:  43;

MUSKEGON       CLOUDY    51  45  79 SE5       30.06S
6HR MIN TEMP:  49; 6HR MAX TEMP:  51;

SOUTH HAVEN    CLOUDY    52  44  74 CALM      30.07S
$$
MIZ016>042-240700-
NORTHERN LOWER MICHIGAN

CITY           SKY/WX    TMP DP  RH WIND       PRES   REMARKS
ALPENA         PTCLDY    29  27  92 CALM      30.05F
6HR MIN TEMP:  27; 6HR MAX TEMP:  40;

BEAVER ISLAND  CLOUDY    52  47  85 SW9       30.01F
6HR MIN TEMP:  42; 6HR MAX TEMP:  52;

BELLAIRE       CLOUDY    45  42  90 CALM      30.04S
CADILLAC       CLOUDY    46  43  90 CALM      30.03F
CHARLEVOIX     CLOUDY    47  42  83 SE3       30.05F
6HR MIN TEMP:  42; 6HR MAX TEMP:  47;

FRANKFORT      CLOUDY    53  45  73 S6        30.01F
GAYLORD        CLOUDY    40  36  86 CALM      30.04S
6HR MIN TEMP:  38; 6HR MAX TEMP:  43;

GRAYLING       CLOUDY    37  36  96 CALM      30.05S
HARBOR SPRINGS CLOUDY    43  40  89 CALM      30.03F
HOUGHTON LAKE  CLOUDY    37  35  92 CALM      30.05F
6HR MIN TEMP:  29; 6HR MAX TEMP:  39;

OSCODA         PTCLDY    29  28  96 SW3       30.07S
PELLSTON       CLOUDY    40  38  93 CALM      30.04S
6HR MIN TEMP:  33; 6HR MAX TEMP:  40;

TRAVERSE CITY  CLOUDY    49  42  77 CALM      30.02F
6HR MIN TEMP:  47; 6HR MAX TEMP:  50;

$$
MIZ007>008-015-240700-
EASTERN UPPER MICHIGAN

CITY           SKY/WX    TMP DP  RH WIND       PRES   REMARKS
KINROSS        CLOUDY    43  43 100 SE6       30.02F
6HR MIN TEMP:  37; 6HR MAX TEMP:  43;

MACKINAC ISLAN CLOUDY    46  43  87 S6        30.02F
6HR MIN TEMP:  44; 6HR MAX TEMP:  46;

NEWBERRY       CLOUDY    47  46  95 SW7       29.99F FOG
S. S. MARIE    CLOUDY    40  37  89 E5        30.03F
6HR MIN TEMP:  39; 6HR MAX TEMP:  44;

$$
MIZ004>006-011>014-085-240700-
CENTRAL UPPER MICHIGAN

CITY           SKY/WX    TMP DP  RH WIND       PRES   REMARKS
MANISTIQUE     CLOUDY    49  48  97 SW7       29.99F FOG
ESCANABA       CLOUDY    48  45  87 SW6       29.99F
6HR MIN TEMP:  48; 6HR MAX TEMP:  48;

MENOMINEE      CLOUDY    48  46  93 CALM      30.00S
6HR MIN TEMP:  48; 6HR MAX TEMP:  48;

SAWYER-GWINN   CLOUDY    45  44  95 SW8       29.98S FOG
6HR MIN TEMP:  45; 6HR MAX TEMP:  46;

$$
MIZ001>003-009>011-084-240700-
WESTERN UPPER MICHIGAN

CITY           SKY/WX    TMP DP  RH WIND       PRES   REMARKS
IRON MOUNTAIN  CLOUDY    46  44  93 W7        29.98F
6HR MIN TEMP:  45; 6HR MAX TEMP:  46;

HOUGHTON       CLOUDY    47  44  90 SW5       29.95S
6HR MIN TEMP:  47; 6HR MAX TEMP:  47;

COPPER HARBOR    N/A     49  46  90 CALM      29.96S
6HR MIN TEMP:  48; 6HR MAX TEMP:  49; 6HR PCP:  0.01;

IRONWOOD       CLOUDY    46  45  93 S8        29.95R
6HR MIN TEMP:  46; 6HR MAX TEMP:  48;

$$

ABBREVIATIONS USED IN REMARKS
   TC - TEMPERATURE IN CELSIUS
  WCI - WIND CHILL INDEX
   HX - HEAT INDEX
  VSB - VISIBILITY




USA.gov is the U.S. government's official web portal to all federal, state and local government web resources and services.